SCP
0 0 0 0 0 0 0 0 0 0 0 0 -0 -0 0 0 0 0 0 0 0 0 0 0 0 0 0 0 0 0 0 0 0 0 0 0 0 0 0 0 0 0 0 0
0 0 0 0 0 0 0 0 0 0 0 0 0 -0 -0 -0 0 0 0 0 0 0 0 0 0 0 0 0 0 0 0 0 0 0 0 0 0 0 0 0 0 -0 0 0
0 0 0 0 0 0 0 0 0 0 0 0 0 0 -0 -0 0 0 0 0 0 0 0 0 0 0 0 0 0 0 0 0 0 0 0 0 0 0 0 0 0 0 -0 -0
0 0 0 0 0 0 0 0 0 0 0 0 0 0 -0 -0 -0 0 0 0 0 0 0 0 0 0 0 0 0 0 0 0 0 0 0 0 0 0 0 0 0 0 -0 -0
0 0 0 0 0 0 0 0 0 0 0 0 0 0 0 0 -0 -0 0 0 0 0 0 0 0 0 0 0 0 0 0 0 0 0 0 0 0 0 0 0 0 0 0 -0
0 0 0 0 0 0 0 0 0 0 0 0 0 0 0 0 -0 0 0 0 0 0 0 0 0 0 0 0 0 0 0 0 0 0 0 0 0 0 0 0 0 0 0 0
0 0 0 0 0 0 0 0 0 0 0 0 0 0 0 -0 -0 -0 -0 0 0 0 0 0 0 0 0 0 0 0 0 0 0 0 0 0 0 0 0 0 0 0 0 0
0 0 0 0 0 0 0 0 0 0 0 0 0 0 0 -0 -0 0 -0 -0 0 0 0 0 0 0 0 0 0 -0 -0 -0 0 0 0 0 0 0 0 0 0 0 0 0
0 0 0 0 0 0 0 0 0 0 0 0 0 0 0 -0 0 0 -0 -0 0 -0 0 0 0 0 0 0 0 0 -0 0 0 0 0 0 0 0 0 0 0 0 0 0
0 0 0 0 0 0 0 0 0 0 0 0 0 0 0 0 -0 0 0 0 0 0 0 0 0 0 0 0 0 0 0 0 0 0 0 0 0 0 0 0 0 0 0 0
0 0 0 0 0 0 0 0 0 0 0 0 0 0 0 -0 0 0 0 0 0 0 0 0 0 0 0 0 0 0 0 0 0 0 0 -0 0 0 0 0 0 0 0 -0
0 0 0 0 0 0 0 0 0 0 0 0 0 0 -0 -0 -0 -0 0 0 0 0 0 0 0 0 0 0 0 0 0 0 0 0 0 0 0 0 0 0 0 0 0 0
0 0 0 0 0 0 0 0 0 0 0 0 0 0 0 -0 -0 -0 -0 -0 -0 -0 0 -0 0 0 0 0 0 0 0 0 0 0 0 0 0 0 0 0 0 0 0 -0
0 0 0 0 0 0 0 0 0 0 0 0 0 0 0 0 0 -0 -0 -0 -0 -0 -0 -0 -0 -0 -0 0 0 0 0 0 0 0 0 0 0 0 0 0 -0 -0 -0 0
0 0 0 0 0 0 0 0 0 0 0 0 0 0 0 0 0 0 0 -0 -0 0 -0 -0 -0 0 -0 0 0 -0 0 0 0 0 -0 0 0 0 0 0 0 -0 -0 0
0 0 0 0 0 0 0 0 0 0 0 0 0 0 0 0 0 0 0 0 0 0 0 0 0 0 0 0 -0 0 0 -0 0 0 0 0 0 0 0 0 0 0 0 0
0 0 0 0 0 0 0 0 0 0 0 0 0 0 0 0 0 0 0 0 0 0 0 0 0 0 0 0 0 -0 0 0 0 0 0 -0 0 0 0 0 0 0 0 0
0 0 0 0 0 0 0 0 0 0 0 0 0 0 0 0 0 0 0 0 0 0 0 0 0 0 0 0 -0 -0 -0 -0 -0 -0 0 0 0 0 0 0 0 0 0 0
0 0 0 0 0 0 0 0 0 0 0 0 0 0 0 0 0 0 0 0 0 0 0 0 0 0 0 0 0 -0 -0 -0 -0 -0 0 0 0 0 0 0 0 0 1 1
0 0 0 0 0 0 0 0 0 0 0 0 0 0 0 0 0 0 0 0 0 0 0 0 0 0 0 0 -0 -0 0 0 -0 0 0 -0 -0 0 0 0 0 0 1 0
0 0 0 0 -0 0 0 0 0 0 0 0 0 0 0 0 0 0 0 0 0 0 0 0 0 0 0 -0 -0 -0 0 0 0 0 0 0 0 0 0 0 0 0 0 0
0 0 0 0 0 0 0 0 0 0 0 0 0 0 0 0 0 0 0 0 0 0 0 0 0 0 0 -0 -0 -0 -0 -0 0 0 0 -0 0 -0 0 0 0 0 0 0
0 0 0 0 0 0 0 0 0 0 0 0 0 0 0 0 0 0 0 0 0 0 0 0 0 0 0 0 -0 -0 -0 -0 -0 -0 -0 -0 0 -0 0 0 0 0 0 0
0 0 0 0 0 0 0 0 0 0 0 0 0 0 0 0 0 0 0 0 0 0 0 0 0 0 0 0 0 -0 -0 -0 -0 0 0 0 -0 -0 0 0 -0 -0 -0 -0
0 0 0 0 0 0 0 0 0 0 0 0 0 0 0 0 0 0 0 0 0 0 0 0 0 0 -0 -0 0 -0 0 0 0 0 0 0 0 0 0 0 0 -0 -0 -0
0 -0 0 0 0 0 0 0 0 0 0 0 0 0 0 0 -0 -0 -0 -0 -0 0 0 0 0 0 -0 -0 -0 -0 -0 -0 -0 -0 -0 -0 0 -0 -0 -0 -0 -0 -0 -0
0 0 0 0 0 0 0 0 0 0 0 0 0 0 0 -0 0 0 0 0 0 -0 0 0 0 0 0 -0 -0 -0 -0 -0 0 0 -0 -0 -0 0 0 0 0 0 0 0
Wind_Speed_500mb
52 55 57 59 57 57 57 29 6 35 28 16 8 9 23 23 19 19 9 11 11 7 9 8 9 7 12 32 22 2 8 5 21 25 24 42 49 39 51 24 25 30 15 15
49 52 52 54 52 51 51 23 10 20 27 9 13 17 13 21 19 17 13 10 13 10 8 7 9 10 9 31 23 14 11 6 22 19 19 17 47 45 48 43 28 38 24 13
48 47 47 48 47 45 41 16 7 9 12 5 9 15 13 17 20 7 17 11 13 11 2 5 5 11 9 24 18 20 9 1 18 28 18 8 10 28 46 49 34 35 45 34
47 43 40 40 41 39 31 11 5 7 7 10 21 10 12 24 15 15 11 5 14 12 4 6 8 13 13 8 19 12 9 3 9 12 16 15 20 25 22 37 50 45 43 48
45 43 38 35 37 34 18 8 8 6 16 19 17 12 8 17 18 18 17 8 20 22 6 8 14 15 8 6 10 9 12 3 6 20 20 23 27 30 30 34 37 37 45 50
44 42 40 36 33 31 10 12 16 12 6 8 13 9 8 17 33 16 13 18 29 24 22 23 34 32 32 28 18 9 8 5 6 13 16 27 31 42 40 34 31 33 43 35
48 45 41 38 34 32 25 24 20 12 8 15 16 23 35 30 25 19 39 39 27 14 36 44 31 36 41 36 36 30 10 8 5 10 6 21 12 12 16 31 37 42 45 38
56 52 47 41 45 33 31 28 24 10 7 20 24 28 27 18 22 25 34 32 21 26 25 11 13 6 8 15 30 34 37 18 8 11 24 33 43 15 3 5 25 18 34 39
62 62 57 50 51 46 39 36 26 25 12 13 27 19 20 20 23 22 17 22 20 11 6 5 6 5 5 5 4 10 27 28 14 10 19 26 4 18 17 7 27 8 9 13
66 64 62 57 54 51 40 45 36 27 17 30 35 17 16 12 11 10 18 12 11 5 6 8 8 8 7 7 8 9 11 15 31 28 20 16 19 6 11 16 3 14 12 20
69 67 64 58 54 49 40 46 41 32 22 45 46 45 36 37 25 13 12 17 5 6 8 6 5 5 4 8 12 6 12 14 12 23 20 40 24 17 18 9 14 23 26 25
71 70 63 56 60 47 40 46 44 47 33 27 33 45 58 57 53 40 16 14 2 3 3 3 4 6 6 7 8 9 13 22 9 18 13 27 38 36 46 28 35 33 37 37
70 68 59 68 52 32 31 43 42 42 30 40 36 25 22 23 30 41 34 20 26 19 23 6 6 13 4 8 14 18 11 19 14 20 23 36 66 64 49 43 47 51 44 50
72 65 72 63 41 26 24 29 37 36 10 8 14 14 34 36 30 33 51 55 15 28 20 14 6 6 12 8 17 20 21 16 15 27 39 57 62 60 50 45 49 50 45 53
70 74 73 39 26 18 20 23 27 36 22 7 23 57 8 18 10 30 36 50 53 27 9 11 10 8 7 14 18 29 35 39 24 21 27 20 43 43 46 54 51 40 38 49
75 76 51 21 13 7 15 7 9 9 33 7 7 14 10 11 9 23 37 43 39 30 13 11 16 40 14 9 11 24 48 54 59 48 54 48 77 72 73 66 52 43 39 34
74 63 31 9 7 10 8 4 10 9 5 4 8 9 10 14 10 13 22 31 21 23 12 14 18 21 22 7 27 47 54 64 69 68 65 69 83 64 51 45 46 38 31 14
60 33 19 20 12 2 8 14 11 11 8 4 5 8 11 5 7 9 23 18 29 19 12 11 8 10 15 13 38 58 66 69 76 83 85 83 78 42 51 41 32 29 26 35
32 18 13 8 13 9 9 7 4 22 4 3 4 5 7 17 8 6 7 16 6 12 8 7 8 4 11 28 46 74 82 61 57 50 45 57 65 50 38 29 23 18 42 48
25 14 8 10 12 9 8 9 3 5 6 5 5 6 6 8 6 3 6 5 4 5 3 20 5 6 47 69 75 77 39 17 44 43 32 52 50 33 31 27 26 4 35 44
15 6 8 14 12 5 6 4 4 5 5 7 10 11 8 6 4 5 6 5 4 5 5 6 7 12 44 91 103 93 59 11 14 23 28 28 47 41 35 27 12 24 54 53
19 12 17 17 15 9 8 7 4 2 6 6 7 10 12 11 5 3 2 5 3 8 14 9 11 22 67 84 94 101 106 51 50 34 37 45 48 45 38 42 24 40 53 58
19 13 9 11 18 15 12 13 7 12 21 12 34 7 7 7 6 4 3 12 9 15 9 7 15 57 76 86 89 109 120 124 99 83 75 56 65 60 51 49 45 51 62 64
12 14 15 11 11 9 4 17 12 24 25 46 32 12 7 10 8 8 12 10 9 12 11 16 19 59 62 65 79 98 102 99 99 101 96 102 96 88 78 75 73 74 78 78
15 17 12 11 19 23 29 33 23 28 28 22 11 6 12 10 8 10 10 12 11 12 11 12 46 50 51 57 60 68 73 85 92 83 78 75 76 77 76 78 76 74 71 72
16 20 11 25 9 33 43 49 43 50 26 7 12 10 10 16 9 15 16 10 13 11 13 40 41 42 49 58 67 75 77 77 73 74 77 73 66 63 60 61 64 59 51 54
11 11 25 18 12 18 35 43 50 46 38 9 9 14 12 8 11 13 11 10 10 30 35 31 33 37 44 51 56 62 66 70 75 76 77 70 61 59 64 65 56 54 57 53
Wind_Direction_500mb
351 353 353 352 353 352 356 357 351 356 10 40 14 350 322 310 327 342 312 305 312 309 343 327 20 80 42 2 349 36 28 269 220 203 189 214 203 196 197 204 187 225 259 252
355 356 354 352 354 356 354 346 321 360 25 39 354 332 306 315 343 340 327 322 354 341 344 298 46 33 28 8 17 22 352 223 201 227 214 199 218 215 207 218 233 217 210 213
355 356 353 350 353 355 356 345 340 345 40 86 357 339 320 328 336 349 347 355 351 344 332 341 328 356 4 352 9 345 329 329 257 223 230 22 226 219 212 213 221 225 226 235
355 352 350 346 347 351 359 354 339 332 320 344 326 306 298 309 349 343 1 29 31 344 288 317 346 7 334 357 7 6 8 301 327 305 299 293 270 262 243 234 233 230 239 237
353 351 349 342 341 346 357 329 325 312 290 292 316 315 305 311 334 331 314 305 6 334 360 339 311 343 346 339 352 27 357 283 305 301 293 284 275 255 251 244 242 254 258 260
346 346 346 347 332 336 331 310 295 274 288 278 296 297 300 312 324 307 334 326 325 312 323 323 306 282 269 270 289 311 312 288 252 258 304 308 271 244 241 243 243 240 242 251
339 337 338 341 332 317 306 298 295 253 265 279 285 288 295 288 307 297 299 306 294 282 317 312 286 260 255 254 250 231 248 219 227 266 267 242 271 316 291 247 247 241 247 244
332 328 322 319 323 306 293 292 272 242 257 257 277 274 288 289 291 303 297 298 284 294 301 291 304 216 235 226 231 217 218 221 226 228 227 279 287 252 211 304 260 293 266 246
327 322 316 310 303 318 293 275 264 255 277 245 258 274 288 289 297 296 282 298 304 264 259 244 271 277 334 255 173 230 206 227 239 196 238 236 296 249 262 184 267 108 337 291
326 321 317 311 305 302 296 284 258 246 244 268 262 253 268 261 265 263 283 329 326 301 225 221 230 250 299 254 262 153 165 209 221 229 247 258 270 312 135 216 251 323 303 299
325 322 318 312 307 306 288 280 275 243 251 263 264 263 254 256 242 246 267 316 197 258 226 238 228 243 275 270 261 219 203 191 202 227 242 240 268 275 231 347 320 316 315 306
326 323 321 318 313 304 288 271 274 259 236 257 264 268 266 253 249 249 234 228 353 310 303 248 303 244 236 263 267 211 238 223 237 219 218 265 291 287 298 314 298 308 302 303
327 324 324 326 317 307 290 270 269 235 247 275 277 284 304 252 241 236 234 237 231 233 244 286 271 248 252 234 245 262 268 261 240 267 256 264 272 284 298 289 300 301 300 297
328 327 331 331 320 307 294 271 261 257 240 268 280 287 292 285 257 244 224 222 228 239 246 215 244 262 234 244 265 267 258 285 265 269 277 277 276 270 294 289 289 287 289 292
329 329 332 334 317 290 304 281 273 259 242 272 296 303 246 332 259 224 220 214 222 230 225 225 239 215 258 240 259 259 242 240 231 252 251 284 280 292 313 296 289 284 288 283
330 332 336 340 315 272 4 18 22 273 256 320 296 302 300 300 257 224 217 210 213 214 210 225 237 235 234 250 251 249 246 237 239 251 258 269 275 284 284 289 274 284 278 265
335 337 353 18 323 241 52 37 317 303 175 239 284 286 268 297 247 213 205 200 206 216 231 231 241 238 216 242 255 252 247 255 257 255 260 262 260 265 258 260 248 261 241 207
338 349 39 71 42 45 321 335 345 212 185 285 292 281 296 297 258 212 190 191 201 220 235 240 227 221 211 253 257 268 264 259 256 256 251 246 251 254 252 241 226 227 198 121
351 7 49 64 43 34 31 36 117 198 229 280 249 276 302 335 276 278 214 177 197 230 220 240 237 213 236 256 271 270 268 256 252 256 229 219 222 229 207 194 197 236 106 105
8 24 43 32 13 29 74 45 103 214 254 250 250 255 267 296 304 309 342 312 346 282 317 335 287 275 278 302 285 273 299 262 229 230 201 191 197 197 147 111 133 175 100 106
11 47 57 29 85 4 358 22 27 333 288 248 257 242 274 284 285 320 53 331 337 316 0 347 314 348 355 359 21 24 21 60 177 170 159 162 161 141 130 120 93 71 85 98
33 58 63 36 18 8 348 6 317 350 303 268 260 292 251 296 274 309 350 353 289 10 336 352 2 345 0 7 13 21 29 58 98 115 118 120 122 126 116 108 114 97 92 90
33 29 58 19 15 29 13 336 338 320 328 324 320 314 286 304 323 279 320 10 14 318 16 38 7 1 12 23 24 33 40 49 47 52 76 90 76 97 109 112 111 115 104 103
42 32 22 37 5 351 296 316 295 285 295 313 320 315 357 350 12 6 356 15 16 12 18 30 357 353 1 21 39 44 45 48 48 50 63 73 68 70 72 80 94 99 97 98
51 34 37 11 328 328 329 328 319 331 312 345 336 9 25 21 39 6 14 20 25 22 13 357 342 348 13 22 26 38 43 52 49 54 63 68 74 69 70 73 79 83 91 95
55 40 3 340 353 4 4 359 357 1 356 69 29 21 26 35 24 9 14 5 27 8 345 333 340 10 38 48 54 57 57 60 61 65 63 67 69 73 81 90 90 89 84 84
48 12 16 13 16 355 6 5 357 18 30 42 51 44 17 13 33 12 9 344 329 344 341 359 22 33 46 57 59 56 60 57 53 53 56 61 69 69 68 65 68 79 85 87
Wind_Speed_850mb
52 55 57 59 57 57 57 29 6 35 28 16 8 9 23 23 19 19 9 11 11 7 9 8 9 7 12 32 22 2 8 5 21 25 24 42 49 39 51 24 25 30 15 15
49 52 52 54 52 51 51 23 10 20 27 9 13 17 13 21 19 17 13 10 13 10 8 7 9 10 9 31 23 14 11 6 22 19 19 17 47 45 48 43 28 38 24 13
48 47 47 48 47 45 41 16 7 9 12 5 9 15 13 17 20 7 17 11 13 11 2 5 5 11 9 24 18 20 9 1 18 28 18 8 10 28 46 49 34 35 45 34
47 43 40 40 41 39 31 11 5 7 7 10 21 10 12 24 15 15 11 5 14 12 4 6 8 13 13 8 19 12 9 3 9 12 16 15 20 25 22 37 50 45 43 48
45 43 38 35 37 34 18 8 8 6 16 19 17 12 8 17 18 18 17 8 20 22 6 8 14 15 8 6 10 9 12 3 6 20 20 23 27 30 30 34 37 37 45 50
44 42 40 36 33 31 10 12 16 12 6 8 13 9 8 17 33 16 13 18 29 24 22 23 34 32 32 28 18 9 8 5 6 13 16 27 31 42 40 34 31 33 43 35
48 45 41 38 34 32 25 24 20 12 8 15 16 23 35 30 25 19 39 39 27 14 36 44 31 36 41 36 36 30 10 8 5 10 6 21 12 12 16 31 37 42 45 38
56 52 47 41 45 33 31 28 24 10 7 20 24 28 27 18 22 25 34 32 21 26 25 11 13 6 8 15 30 34 37 18 8 11 24 33 43 15 3 5 25 18 34 39
62 62 57 50 51 46 39 36 26 25 12 13 27 19 20 20 23 22 17 22 20 11 6 5 6 5 5 5 4 10 27 28 14 10 19 26 4 18 17 7 27 8 9 13
66 64 62 57 54 51 40 45 36 27 17 30 35 17 16 12 11 10 18 12 11 5 6 8 8 8 7 7 8 9 11 15 31 28 20 16 19 6 11 16 3 14 12 20
69 67 64 58 54 49 40 46 41 32 22 45 46 45 36 37 25 13 12 17 5 6 8 6 5 5 4 8 12 6 12 14 12 23 20 40 24 17 18 9 14 23 26 25
71 70 63 56 60 47 40 46 44 47 33 27 33 45 58 57 53 40 16 14 2 3 3 3 4 6 6 7 8 9 13 22 9 18 13 27 38 36 46 28 35 33 37 37
70 68 59 68 52 32 31 43 42 42 30 40 36 25 22 23 30 41 34 20 26 19 23 6 6 13 4 8 14 18 11 19 14 20 23 36 66 64 49 43 47 51 44 50
72 65 72 63 41 26 24 29 37 36 10 8 14 14 34 36 30 33 51 55 15 28 20 14 6 6 12 8 17 20 21 16 15 27 39 57 62 60 50 45 49 50 45 53
70 74 73 39 26 18 20 23 27 36 22 7 23 57 8 18 10 30 36 50 53 27 9 11 10 8 7 14 18 29 35 39 24 21 27 20 43 43 46 54 51 40 38 49
75 76 51 21 13 7 15 7 9 9 33 7 7 14 10 11 9 23 37 43 39 30 13 11 16 40 14 9 11 24 48 54 59 48 54 48 77 72 73 66 52 43 39 34
74 63 31 9 7 10 8 4 10 9 5 4 8 9 10 14 10 13 22 31 21 23 12 14 18 21 22 7 27 47 54 64 69 68 65 69 83 64 51 45 46 38 31 14
60 33 19 20 12 2 8 14 11 11 8 4 5 8 11 5 7 9 23 18 29 19 12 11 8 10 15 13 38 58 66 69 76 83 85 83 78 42 51 41 32 29 26 35
32 18 13 8 13 9 9 7 4 22 4 3 4 5 7 17 8 6 7 16 6 12 8 7 8 4 11 28 46 74 82 61 57 50 45 57 65 50 38 29 23 18 42 48
25 14 8 10 12 9 8 9 3 5 6 5 5 6 6 8 6 3 6 5 4 5 3 20 5 6 47 69 75 77 39 17 44 43 32 52 50 33 31 27 26 4 35 44
15 6 8 14 12 5 6 4 4 5 5 7 10 11 8 6 4 5 6 5 4 5 5 6 7 12 44 91 103 93 59 11 14 23 28 28 47 41 35 27 12 24 54 53
19 12 17 17 15 9 8 7 4 2 6 6 7 10 12 11 5 3 2 5 3 8 14 9 11 22 67 84 94 101 106 51 50 34 37 45 48 45 38 42 24 40 53 58
19 13 9 11 18 15 12 13 7 12 21 12 34 7 7 7 6 4 3 12 9 15 9 7 15 57 76 86 89 109 120 124 99 83 75 56 65 60 51 49 45 51 62 64
12 14 15 11 11 9 4 17 12 24 25 46 32 12 7 10 8 8 12 10 9 12 11 16 19 59 62 65 79 98 102 99 99 101 96 102 96 88 78 75 73 74 78 78
15 17 12 11 19 23 29 33 23 28 28 22 11 6 12 10 8 10 10 12 11 12 11 12 46 50 51 57 60 68 73 85 92 83 78 75 76 77 76 78 76 74 71 72
16 20 11 25 9 33 43 49 43 50 26 7 12 10 10 16 9 15 16 10 13 11 13 40 41 42 49 58 67 75 77 77 73 74 77 73 66 63 60 61 64 59 51 54
11 11 25 18 12 18 35 43 50 46 38 9 9 14 12 8 11 13 11 10 10 30 35 31 33 37 44 51 56 62 66 70 75 76 77 70 61 59 64 65 56 54 57 53
Wind_Direction_850mb
351 353 353 352 353 352 356 357 351 356 10 40 14 350 322 310 327 342 312 305 312 309 343 327 20 80 42 2 349 36 28 269 220 203 189 214 203 196 197 204 187 225 259 252
355 356 354 352 354 356 354 346 321 360 25 39 354 332 306 315 343 340 327 322 354 341 344 298 46 33 28 8 17 22 352 223 201 227 214 199 218 215 207 218 233 217 210 213
355 356 353 350 353 355 356 345 340 345 40 86 357 339 320 328 336 349 347 355 351 344 332 341 328 356 4 352 9 345 329 329 257 223 230 22 226 219 212 213 221 225 226 235
355 352 350 346 347 351 359 354 339 332 320 344 326 306 298 309 349 343 1 29 31 344 288 317 346 7 334 357 7 6 8 301 327 305 299 293 270 262 243 234 233 230 239 237
353 351 349 342 341 346 357 329 325 312 290 292 316 315 305 311 334 331 314 305 6 334 360 339 311 343 346 339 352 27 357 283 305 301 293 284 275 255 251 244 242 254 258 260
346 346 346 347 332 336 331 310 295 274 288 278 296 297 300 312 324 307 334 326 325 312 323 323 306 282 269 270 289 311 312 288 252 258 304 308 271 244 241 243 243 240 242 251
339 337 338 341 332 317 306 298 295 253 265 279 285 288 295 288 307 297 299 306 294 282 317 312 286 260 255 254 250 231 248 219 227 266 267 242 271 316 291 247 247 241 247 244
332 328 322 319 323 306 293 292 272 242 257 257 277 274 288 289 291 303 297 298 284 294 301 291 304 216 235 226 231 217 218 221 226 228 227 279 287 252 211 304 260 293 266 246
327 322 316 310 303 318 293 275 264 255 277 245 258 274 288 289 297 296 282 298 304 264 259 244 271 277 334 255 173 230 206 227 239 196 238 236 296 249 262 184 267 108 337 291
326 321 317 311 305 302 296 284 258 246 244 268 262 253 268 261 265 263 283 329 326 301 225 221 230 250 299 254 262 153 165 209 221 229 247 258 270 312 135 216 251 323 303 299
325 322 318 312 307 306 288 280 275 243 251 263 264 263 254 256 242 246 267 316 197 258 226 238 228 243 275 270 261 219 203 191 202 227 242 240 268 275 231 347 320 316 315 306
326 323 321 318 313 304 288 271 274 259 236 257 264 268 266 253 249 249 234 228 353 310 303 248 303 244 236 263 267 211 238 223 237 219 218 265 291 287 298 314 298 308 302 303
327 324 324 326 317 307 290 270 269 235 247 275 277 284 304 252 241 236 234 237 231 233 244 286 271 248 252 234 245 262 268 261 240 267 256 264 272 284 298 289 300 301 300 297
328 327 331 331 320 307 294 271 261 257 240 268 280 287 292 285 257 244 224 222 228 239 246 215 244 262 234 244 265 267 258 285 265 269 277 277 276 270 294 289 289 287 289 292
329 329 332 334 317 290 304 281 273 259 242 272 296 303 246 332 259 224 220 214 222 230 225 225 239 215 258 240 259 259 242 240 231 252 251 284 280 292 313 296 289 284 288 283
330 332 336 340 315 272 4 18 22 273 256 320 296 302 300 300 257 224 217 210 213 214 210 225 237 235 234 250 251 249 246 237 239 251 258 269 275 284 284 289 274 284 278 265
335 337 353 18 323 241 52 37 317 303 175 239 284 286 268 297 247 213 205 200 206 216 231 231 241 238 216 242 255 252 247 255 257 255 260 262 260 265 258 260 248 261 241 207
338 349 39 71 42 45 321 335 345 212 185 285 292 281 296 297 258 212 190 191 201 220 235 240 227 221 211 253 257 268 264 259 256 256 251 246 251 254 252 241 226 227 198 121
351 7 49 64 43 34 31 36 117 198 229 280 249 276 302 335 276 278 214 177 197 230 220 240 237 213 236 256 271 270 268 256 252 256 229 219 222 229 207 194 197 236 106 105
8 24 43 32 13 29 74 45 103 214 254 250 250 255 267 296 304 309 342 312 346 282 317 335 287 275 278 302 285 273 299 262 229 230 201 191 197 197 147 111 133 175 100 106
11 47 57 29 85 4 358 22 27 333 288 248 257 242 274 284 285 320 53 331 337 316 0 347 314 348 355 359 21 24 21 60 177 170 159 162 161 141 130 120 93 71 85 98
33 58 63 36 18 8 348 6 317 350 303 268 260 292 251 296 274 309 350 353 289 10 336 352 2 345 0 7 13 21 29 58 98 115 118 120 122 126 116 108 114 97 92 90
33 29 58 19 15 29 13 336 338 320 328 324 320 314 286 304 323 279 320 10 14 318 16 38 7 1 12 23 24 33 40 49 47 52 76 90 76 97 109 112 111 115 104 103
42 32 22 37 5 351 296 316 295 285 295 313 320 315 357 350 12 6 356 15 16 12 18 30 357 353 1 21 39 44 45 48 48 50 63 73 68 70 72 80 94 99 97 98
51 34 37 11 328 328 329 328 319 331 312 345 336 9 25 21 39 6 14 20 25 22 13 357 342 348 13 22 26 38 43 52 49 54 63 68 74 69 70 73 79 83 91 95
55 40 3 340 353 4 4 359 357 1 356 69 29 21 26 35 24 9 14 5 27 8 345 333 340 10 38 48 54 57 57 60 61 65 63 67 69 73 81 90 90 89 84 84
48 12 16 13 16 355 6 5 357 18 30 42 51 44 17 13 33 12 9 344 329 344 341 359 22 33 46 57 59 56 60 57 53 53 56 61 69 69 68 65 68 79 85 87